Location: Les Jeannots
(43.2262°N, 5.5774°E)
Time: 08:31:51
(UTC+00:00)

Cosmos 1842 Rocket - Pass Details

Date: 05 July 2020
Orbit: 604 x 635 km, 82.5° (Epoch: 04 August)

Event Time Altitude Azimuth Distance (km) Brightness Sun altitude
Rises 21:41:06 0° 352° (N) 2,883 8.3 -18.4°
Reaches altitude 10° 21:43:20 10° 353° (N) 1,970 7.2 -18.6°
Maximum altitude 21:47:42 86° 79° (E) 614 3.4 -19.0°
Enters shadow 21:49:01 44° 169° (SSE) 836 3.7 -19.1°
